Regional Weather Roundup
Issued by NWS Boston, MA

Current Version | Previous Version | Graphics & Text | Print | Product List | Glossary On
Versions: 1 2 3 4 5 6 7 8 9 10 11 12 13 14 15 16 17 18 19 20 21 22 23 24 25 26 27 28 29 30 31 32 33 34 35 36 37 38 39 40 41 42 43 44 45 46 47 48 49 50
000
ASUS41 KBOX 231410
RWRBOX

REGIONAL WEATHER ROUNDUP
NATIONAL WEATHER SERVICE BOSTON/NORTON MA
1000 AM EDT TUE OCT 23 2018

NOTE:  "FAIR" INDICATES FEW OR NO CLOUDS BELOW 12,000 FEET WITH NO
SIGNIFICANT WEATHER AND/OR OBSTRUCTIONS TO VISIBILITY.

MAZALL-231500-
EASTERN MASSACHUSETTS

CITY           SKY/WX    TMP DP  RH WIND       PRES   REMARKS
BOSTON         PTSUNNY   53  42  66 SE12      30.12F
BEVERLY        CLOUDY    52  41  66 SE10      30.11F
LAWRENCE       CLOUDY    51  39  63 CALM      30.13F
BEDFORD        PTSUNNY   50  40  68 SE6       30.11F
BLUE HILL        N/A     49  42  77 SE10G18   30.10S
NORWOOD        CLOUDY    53  44  71 S6        30.11F
MARSHFIELD     FAIR      54  45  71 SE9G15    30.13S
PLYMOUTH       CLOUDY    53  44  71 SE6       30.13F
TAUNTON        CLOUDY    53  45  74 SE6       30.12F
NEW BEDFORD    CLOUDY    53  48  83 SE12      30.11F
$$

MAZALL-231500-
CAPE COD AND THE ISLANDS

CITY           SKY/WX    TMP DP  RH WIND       PRES   REMARKS
FALMOUTH       PTSUNNY   52  45  76 SE8G15    30.14F
HYANNIS        CLOUDY    53  45  74 SE7       30.12F
CHATHAM        CLOUDY    52  42  69 VRB7      30.16F
PROVINCETOWN   CLOUDY    52  42  69 SE9       30.15F
NANTUCKET      CLOUDY    53  47  79 E14       30.14F
MARTHAS VNYRD  CLOUDY    54  47  77 SE10      30.13F
$$

MAZALL-231500-
CENTRAL AND WESTERN MASSACHUSETTS

CITY           SKY/WX    TMP DP  RH WIND       PRES   REMARKS
WORCESTER      CLOUDY    46  38  73 S9        30.09S
FITCHBURG      PTSUNNY   41  36  82 CALM      30.12S
ORANGE         PTSUNNY   43  36  76 CALM      30.09F
SPRINGFIELD    CLOUDY    42  38  84 CALM      30.07F
WESTFIELD      CLOUDY    43  38  82 CALM      30.08F
NORTH ADAMS    CLOUDY    46  37  71 VRB5      30.04F
PITTSFIELD     CLOUDY    46  37  71 CALM      30.02F
$$

RIZALL-231500-
RHODE ISLAND

CITY           SKY/WX    TMP DP  RH WIND       PRES   REMARKS
PROVIDENCE     PTSUNNY   50  44  80 CALM      30.11F
NEWPORT        CLOUDY    54  46  74 SE12      30.11F
BLOCK ISLAND   PTSUNNY   56  47  71 S15       30.11F
SMITHFIELD     CLOUDY    49  42  77 SE6       30.10F
WESTERLY       PTSUNNY   57  48  72 SE10      30.11F
$$

CTZALL-231500-
CONNECTICUT

CITY           SKY/WX    TMP DP  RH WIND       PRES   REMARKS
BRADLEY INTL   PTSUNNY   44  39  82 CALM      30.08F
HARTFORD       CLOUDY    46  40  79 CALM      30.08F
BRIDGEPORT     CLOUDY    58  45  62 S9        30.06F
DANBURY        CLOUDY    49  43  80 CALM      30.06F
GROTON         CLOUDY    57  48  72 SE17      30.08F
NEW HAVEN      PTSUNNY   59  46  62 S12       30.07F
CHESTER        PTSUNNY   52  45  76 SE5       30.07F
MERIDEN        PTSUNNY   49  41  74 CALM      30.07F
WILLIMANTIC    PTSUNNY   44  40  85 CALM      30.10F
OXFORD         PTSUNNY   50  44  80 SE10      30.06F
$$

MEZ002-015-021-024-NHZ003-005-008-011-012-014-VTZ005-008-231500-
NORTHERN NEW ENGLAND

CITY           SKY/WX    TMP DP  RH WIND       PRES   REMARKS
PORTLAND ME    FAIR      44  35  70 VRB5      30.16F
BANGOR ME      FLURRIES  35  27  72 N8        30.20F WCI  29
CONCORD NH     CLOUDY    43  35  73 CALM      30.12S
MANCHESTER NH  PTSUNNY   45  37  73 CALM      30.10F
NASHUA NH      CLOUDY    43  37  79 CALM      30.12F
PORTSMOUTH NH  PTSUNNY   46  37  70 CALM      30.11F
JAFFREY NH     CLOUDY    42  36  79 N3        30.08F
KEENE NH       CLOUDY    43  37  79 CALM      30.09S
BURLINGTON VT  FAIR      47  34  60 E7        30.05F
MT. WASHINGTON FOG       23  23 100 SW14        N/A  VSB 1/16WCI  11
$$

NYZ052-076-231500-
EASTERN NEW YORK

CITY           SKY/WX    TMP DP  RH WIND       PRES   REMARKS
ALBANY         PTSUNNY   47  37  68 VRB5      30.03F
NEW YORK CITY  PTSUNNY   57  42  57 SW7       30.05F
$$

ANZALL-231500-
MARINE OBSERVATIONS

STATION/POSITION TIME  TEMP    WIND        PRES    VSBY  WAVE
                       AIR SEA DIR/SP/G                  HT/PER
                 (UTC) (F)     (DEG/KT/KT) (MB)    (MI)  (FT/S)
BOSTON BUOY      1350   53 56  140/ 16/ 19 1019.5F         2/ 3
BUZZARDS BAY     1300   54     140/ 14/ 16 1020.5F
NANTUCKET SOUND  1350   53 58  130/ 16/ 17 1020.7F         2/ 4
MASS BAY-STELLWA 1304   52 56  160/ 14/ 17 1019.5F  1 7/8  2/ 3
ISLE OF SHOALS   1300   48        CALM     1020.3F
S OF BLOCK IS    1343      62                N/A           3/ 5
$$

......................KEY.........................
  SKY/WX - SKY CONDITION/PRESENT WEATHER
  TMP    - TEMPERATURE IN FAHRENHEIT
  DWPT   - DEWPOINT IN FAHRENHEIT
  RH     - RELATIVE HUMIDITY IN PERCENT
  WIND   - DIRECTION AND SPEED IN MPH
  PRES   - MEAN SEA LEVEL PRESSURE IN INCHES OF HG
  WCI    - WIND CHILL INDEX
  VSB    - VISIBILITY IN MILES
  HX     - HEAT INDEX
  TC     - TEMPERATURE IN CELSIUS
  VRB    - VARIABLE WIND DIRECTION
  N/A    - NOT AVAILABLE




USA.gov is the U.S. government's official web portal to all federal, state and local government web resources and services.